EDT,Max TemperatureF,Mean TemperatureF,Min TemperatureF,Max Dew PointF,MeanDew PointF,Min DewpointF,Max Humidity, Mean Humidity, Min Humidity, Max Sea Level PressureIn, Mean Sea Level PressureIn, Min Sea Level PressureIn, Max VisibilityMiles, Mean VisibilityMiles, Min VisibilityMiles, Max Wind SpeedMPH, Mean Wind SpeedMPH, Max Gust SpeedMPH,PrecipitationIn, CloudCover, Events, WindDirDegrees
2012-9-1,50,47,44,50,44,39,100,89,76,,,,10,3,0,39,24,50,0.00,2,Fog,296
2012-9-2,46,44,41,45,42,37,100,91,71,,,,20,3,0,28,17,,0.05,3,Fog-Rain,304
2012-9-3,51,45,39,50,43,37,100,88,71,,,,5,2,0,29,15,23,0.00,3,Fog,259
2012-9-4,53,50,48,54,52,45,100,99,87,,,,0,0,0,28,20,23,0.19,3,Fog-Rain,227
2012-9-5,55,50,46,55,51,46,100,99,93,,,,0,0,0,43,25,58,0.53,8,Fog-Rain,310
2012-9-6,55,50,46,52,49,41,100,94,67,,,,2,0,0,40,13,46,0.00,6,Fog,286
2012-9-7,55,50,46,52,47,41,100,87,67,,,,0,0,0,38,28,50,0.00,4,Fog,276
2012-9-8,55,50,42,55,51,41,100,99,87,,,,0,0,0,61,35,75,1.64,4,Fog-Rain-Thunderstorm,201
2012-9-9,46,40,35,43,35,10,100,85,29,,,,0,0,0,58,34,62,0.02,4,Fog-Rain,287
2012-9-10,35,32,30,36,32,30,100,100,100,,,,0,0,0,50,38,69,0.00,,Fog,309
2012-9-11,44,36,28,34,19,-2,100,55,14,,,,0,0,0,45,33,51,0.00,2,Fog,301
2012-9-12,55,47,39,42,37,27,95,68,38,,,,1,1,1,30,22,28,0.00,2,,286
2012-9-13,60,53,46,48,33,9,77,48,14,,,,,,,34,23,25,0.00,1,,260
2012-9-14,57,52,48,52,44,27,100,77,35,,,,0,0,0,37,15,41,0.00,3,Fog,222
2012-9-15,46,39,30,46,36,30,100,97,76,,,,0,0,0,62,45,71,0.24,7,Fog-Rain,302
2012-9-16,33,28,23,30,24,14,100,83,59,,,,3,0,0,67,54,81,0.00,1,Fog,293
2012-9-17,46,39,32,45,32,0,100,74,20,,,,10,2,0,39,30,43,0.00,3,Fog,281
2012-9-18,51,46,41,52,44,36,100,97,76,,,,1,0,0,62,39,72,1.77,7,Fog-Rain,170
2012-9-19,51,40,28,52,33,21,100,92,69,,,,1,0,0,59,42,67,0.39,4,Fog-Rain,275
2012-9-20,41,34,28,32,22,1,87,64,25,,,,,,,25,14,30,0.00,1,,233
2012-9-21,53,44,35,37,26,-9,93,50,9,,,,,,,18,14,22,0.00,3,,226
2012-9-22,51,48,44,48,41,14,100,82,24,,,,0,0,0,41,27,53,0.36,1,Fog,194
2012-9-23,44,37,30,45,33,28,100,96,75,,,,0,0,0,46,31,58,0.00,6,Fog-Rain,273
2012-9-24,32,29,26,32,27,21,100,93,80,,,,15,2,0,39,20,32,0.00,4,Fog-Snow,258
2012-9-25,42,35,28,34,30,25,100,80,53,,,,0,0,0,52,38,53,0.00,2,Fog,252
2012-9-26,42,40,37,43,38,21,100,91,45,,,,0,0,0,50,34,59,0.24,8,Fog-Rain,250
2012-9-27,39,32,24,39,22,-4,100,76,17,,,,15,3,0,59,34,55,0.00,4,Fog-Rain,300
2012-9-28,39,34,32,39,30,0,100,87,22,,,,0,0,0,25,18,26,0.21,6,Fog-Rain,205
2012-9-29,44,40,37,45,40,37,100,100,100,,,,0,0,0,24,10,28,0.08,,Fog,121
2012-9-30,39,36,33,39,38,34,100,100,96,,,,1,0,0,43,23,,0.60,8,Fog-Rain,150